N3PL Weather Reports


Display with metric or nautical units.
time (UTC)temp
F
wind
direction
speed
MPH
gust
MPH
rain 1hr
in
rain 24hr
in
rain mn
in
humidity
%
barometer
mb
20260902052053 70 124 0.0 0.0 0.00 0.00 0.01 100 1012.1
20260902051607 70 124 0.0 0.0 0.00 0.00 0.01 100 1012.1
20260902051104 70 124 0.0 0.0 0.00 0.00 0.01 100 1012.5
20260902050505 70 124 0.0 0.0 0.00 0.00 0.01 100 1012.5
20260902050009 70 124 0.0 0.0 0.00 0.00 0.01 100 1012.5
20260902045509 70 124 0.0 0.0 0.00 0.00 0.01 100 1012.5
20260902045102 70 124 0.0 0.0 0.00 0.00 0.01 100 1012.5
20260902044550 70 124 0.0 0.0 0.00 0.00 0.01 100 1012.5
20260902044053 70 124 0.0 0.0 0.00 0.00 0.00 100 1012.3
20260902043556 70 124 0.0 0.0 0.00 0.00 0.00 100 1012.3
20260902043100 70 124 0.0 0.0 0.00 0.00 0.00 100 1012.3
20260902042551 70 124 0.0 0.0 0.00 0.00 0.00 100 1012.3
20260902042053 70 124 0.0 0.0 0.00 0.00 0.00 100 1012.3
20260902041557 70 124 0.0 0.0 0.00 0.00 0.00 100 1012.3
20260902041059 70 124 0.0 0.0 0.00 0.00 0.00 100 1012.3
20260902040549 70 124 0.0 0.0 0.00 0.00 0.00 100 1012.3
20260902040055 70 124 0.0 0.0 0.00 0.00 0.00 100 1012.3
20260902035558 70 124 0.0 0.0 0.00 0.00 0.07 100 1012.4
20260902035045 70 124 0.0 0.0 0.00 0.00 0.07 100 1012.4
20260902034600 70 124 0.0 0.0 0.00 0.00 0.07 100 1012.4
20260902034058 70 124 0.0 0.0 0.00 0.00 0.07 100 1011.6
20260902033503 70 124 0.0 0.0 0.00 0.00 0.07 100 1011.6
20260902033010 70 124 0.0 0.0 0.00 0.00 0.07 100 1011.6
20260902032510 70 124 0.0 0.0 0.00 0.00 0.07 100 1011.4
20260902032103 70 124 0.0 0.0 0.00 0.00 0.07 100 1011.4
20260902031606 70 124 0.0 0.0 0.00 0.00 0.07 100 1011.4
20260902031002 70 124 0.0 0.0 0.00 0.00 0.07 100 1011.3
20260902030559 70 124 0.0 0.0 0.00 0.00 0.07 100 1011.3
20260902030044 69 124 0.0 0.0 0.00 0.00 0.07 100 1011.3
20260902025552 69 124 0.0 0.0 0.00 0.00 0.07 100 1011.0
20260902025105 70 124 0.0 0.0 0.00 0.00 0.07 100 1011.0
20260902024505 70 124 0.0 0.0 0.00 0.00 0.07 100 1011.0
20260902024057 70 124 0.0 0.0 0.00 0.00 0.07 99 1010.2
20260902023545 70 124 0.0 0.0 0.00 0.00 0.07 100 1010.2
20260902023048 70 124 0.0 0.0 0.00 0.00 0.06 99 1010.2
20260902022554 70 124 0.0 0.0 0.00 0.00 0.06 100 1010.1
20260902022057 70 89 0.0 0.0 0.00 0.00 0.06 100 1010.1
20260902021544 70 110 0.0 0.0 0.00 0.00 0.06 100 1010.1
20260902021049 70 110 0.0 0.0 0.00 0.00 0.06 99 1010.3
20260902020553 70 110 0.0 0.0 0.00 0.00 0.06 99 1010.3
20260902015602 70 110 0.0 0.0 0.00 0.00 0.06 99 1009.9
20260902015106 70 110 0.0 0.0 0.00 0.00 0.06 99 1009.9
20260902014507 70 110 0.0 0.0 0.00 0.00 0.06 99 1009.9
20260902014100 70 110 0.0 0.0 0.00 0.00 0.06 99 1010.1
20260902013602 69 110 0.0 0.0 0.00 0.00 0.06 99 1010.1
20260902013106 69 110 0.0 0.0 0.00 0.00 0.06 99 1010.1
20260902012503 69 110 0.0 0.0 0.00 0.00 0.06 99 1009.6
20260902012056 69 110 0.0 0.0 0.00 0.00 0.06 99 1009.6
20260902011545 69 110 0.0 0.0 0.00 0.00 0.06 99 1009.6
20260902011048 69 110 0.0 0.0 0.00 0.00 0.06 99 1010.2
20260902010550 69 110 0.0 0.0 0.00 0.00 0.06 99 1010.2
20260902010101 69 110 0.0 0.0 0.00 0.00 0.06 99 1010.2
20260902005600 69 110 0.0 0.0 0.00 0.00 0.06 98 1010.2
20260902005105 69 110 0.0 0.0 0.00 0.00 0.06 98 1010.2
20260902004555 69 110 0.0 0.0 0.00 0.00 0.06 98 1010.2
20260902004059 69 112 0.0 0.0 0.00 0.00 0.06 97 1011.5
20260902003606 69 308 2.0 0.0 0.00 0.00 0.06 96 1011.5
20260902003004 70 289 4.0 0.0 0.00 0.00 0.06 92 1011.5
20260902002557 72 254 3.0 0.0 0.00 0.00 0.06 87 1008.5
20260902002104 76 280 0.0 0.0 0.00 0.00 0.06 80 1008.5
20260902001505 81 302 0.0 0.0 0.00 0.00 0.06 84 1008.5
20260902001058 81 11 0.0 0.0 0.00 0.00 0.06 84 1007.9
20260902000601 81 11 0.0 0.0 0.00 0.00 0.06 84 1007.9
20260902000105 81 11 0.0 0.0 0.00 0.00 0.06 84 1007.9
20260901235503 82 11 0.0 0.0 0.00 0.00 0.06 83 1007.4
20260901235055 82 11 0.0 0.0 0.00 0.00 0.06 83 1007.4
20260901234601 82 11 0.0 0.0 0.00 0.00 0.06 81 1007.4
20260901234103 82 11 0.0 0.0 0.00 0.00 0.06 81 1007.8
20260901233605 83 11 0.0 0.0 0.00 0.00 0.06 81 1007.8
20260901233054 83 11 0.0 0.0 0.00 0.00 0.06 82 1007.8
20260901232556 83 11 0.0 0.0 0.00 0.00 0.06 81 1008.4
20260901232105 83 11 0.0 0.0 0.00 0.00 0.06 80 1008.4
20260901231606 84 11 0.0 0.0 0.00 0.00 0.06 79 1008.4
20260901231054 84 11 0.0 0.0 0.00 0.00 0.06 77 1008.3
20260901230557 84 11 0.0 0.0 0.00 0.00 0.06 76 1008.3
20260901230100 84 11 0.0 0.0 0.00 0.00 0.05 75 1008.3
20260901225604 84 11 0.0 0.0 0.00 0.00 0.05 75 1008.4
20260901225106 84 11 0.0 0.0 0.00 0.00 0.05 75 1008.4
20260901224558 85 11 0.0 0.0 0.00 0.00 0.05 75 1008.4
20260901224058 85 11 0.0 0.0 0.00 0.00 0.05 74 1008.3
20260901223600 85 11 0.0 0.0 0.00 0.00 0.05 74 1008.3
20260901223103 85 11 0.0 0.0 0.00 0.00 0.05 74 1008.3
20260901222551 85 11 0.0 0.0 0.00 0.00 0.05 72 1008.4
20260901222054 85 11 0.0 0.0 0.00 0.00 0.05 71 1008.4
20260901221544 86 11 0.0 0.0 0.00 0.00 0.05 70 1008.4
20260901221044 86 11 0.0 0.0 0.00 0.00 0.05 69 1008.3
20260901220547 86 11 0.0 0.0 0.00 0.00 0.05 68 1008.3
20260901220059 87 11 0.0 0.0 0.00 0.00 0.05 68 1008.3
20260901215603 87 11 0.0 0.0 0.00 0.00 0.05 67 1008.4
20260901215003 87 11 0.0 0.0 0.00 0.00 0.05 66 1008.4
20260901214508 87 11 0.0 0.0 0.00 0.00 0.05 66 1008.4
20260901214014 87 11 0.0 0.0 0.00 0.00 0.05 66 1008.4
20260901213605 87 11 0.0 0.0 0.00 0.00 0.05 66 1008.4
20260901213005 87 11 0.0 0.0 0.00 0.00 0.05 65 1008.4
20260901212507 87 11 0.0 0.0 0.00 0.00 0.05 65 1008.4
20260901212100 87 11 0.0 0.0 0.00 0.00 0.05 65 1008.4
20260901211603 88 11 0.0 0.0 0.00 0.00 0.05 65 1008.4
20260901211107 88 11 0.0 0.0 0.00 0.00 0.05 65 1008.4
20260901210502 87 11 0.0 0.0 0.00 0.00 0.05 65 1008.4
20260901210006 87 11 0.0 0.0 0.00 0.00 0.05 65 1008.4
20260901205600 87 11 0.0 0.0 0.00 0.00 0.05 65 1008.6
20260901205104 87 11 0.0 0.0 0.00 0.00 0.05 64 1008.6
20260901204606 87 11 0.0 0.0 0.00 0.00 0.05 65 1008.6
20260901204006 87 11 0.0 0.0 0.00 0.00 0.05 65 1008.8
20260901203559 87 11 0.0 0.0 0.00 0.00 0.05 65 1008.8
20260901203105 87 11 0.0 0.0 0.00 0.00 0.04 65 1008.8
20260901202606 87 11 0.0 0.0 0.00 0.00 0.04 65 1009.0
20260901202002 87 294 0.0 0.0 0.00 0.00 0.04 65 1009.0
20260901201556 87 294 0.0 0.0 0.00 0.00 0.04 65 1009.0
20260901201100 87 294 0.0 0.0 0.00 0.00 0.04 65 1008.9
20260901200503 87 263 0.0 0.0 0.00 0.00 0.04 65 1008.9
20260901200006 87 261 0.0 0.0 0.00 0.00 0.04 63 1008.9
20260901195559 87 261 0.0 0.0 0.00 0.00 0.04 64 1009.1
20260901195102 87 261 0.0 0.0 0.00 0.00 0.04 63 1009.1
20260901194616 87 261 0.0 0.0 0.00 0.00 0.04 64 1009.1
20260901194004 87 261 0.0 0.0 0.00 0.00 0.04 64 1009.2
20260901193557 87 244 0.0 0.0 0.00 0.00 0.04 63 1009.2
20260901193110 87 244 0.0 0.0 0.00 0.00 0.04 63 1009.2
20260901192602 87 244 0.0 0.0 0.00 0.00 0.04 63 1009.4
20260901192106 87 251 0.0 0.0 0.00 0.00 0.04 65 1009.4
20260901191503 87 251 0.0 0.0 0.00 0.00 0.04 65 1009.4
20260901191055 87 251 0.0 0.0 0.00 0.00 0.04 65 1009.4
20260901190603 87 251 0.0 0.0 0.00 0.00 0.04 66 1009.4
20260901190107 87 251 0.0 0.0 0.00 0.00 0.04 66 1009.4
20260901185559 87 251 0.0 0.0 0.00 0.00 0.04 65 1009.7
20260901185008 87 251 0.0 0.0 0.00 0.00 0.04 65 1009.7
20260901184600 87 251 0.0 0.0 0.00 0.00 0.04 66 1009.7
20260901184103 87 251 0.0 0.0 0.00 0.00 0.04 65 1009.8
20260901183605 87 251 0.0 0.0 0.00 0.00 0.04 64 1009.8
20260901183003 87 229 0.0 0.0 0.00 0.00 0.04 64 1009.8
20260901182507 87 229 0.0 0.0 0.00 0.00 0.04 63 1009.7
20260901182100 87 160 0.0 0.0 0.00 0.00 0.04 64 1009.7
20260901181550 87 157 0.0 0.0 0.00 0.00 0.04 65 1009.7
20260901181049 87 157 0.0 0.0 0.00 0.00 0.04 64 1009.8
20260901180552 87 216 0.0 0.0 0.00 0.00 0.04 63 1009.8
20260901180100 87 216 0.0 0.0 0.00 0.00 0.04 65 1009.8
20260901175603 86 216 0.0 0.0 0.00 0.00 0.04 66 1009.9
20260901175106 85 216 0.0 0.0 0.00 0.00 0.04 68 1009.9
20260901174554 85 216 0.0 0.0 0.00 0.00 0.04 68 1009.9
20260901174059 85 216 0.0 0.0 0.00 0.00 0.04 72 1010.0
20260901173601 84 154 0.0 0.0 0.00 0.00 0.04 73 1010.0
20260901173107 83 154 0.0 0.0 0.00 0.00 0.04 75 1010.0
20260901172555 83 154 0.0 0.0 0.00 0.00 0.03 80 1010.4
20260901172059 82 154 0.0 0.0 0.00 0.00 0.03 81 1010.4
20260901171611 81 154 0.0 0.0 0.00 0.00 0.03 83 1010.4
20260901171004 81 154 0.0 0.0 0.00 0.00 0.03 87 1010.6
20260901170557 80 154 0.0 0.0 0.00 0.00 0.03 86 1010.6
20260901170047 80 154 0.0 0.0 0.00 0.00 0.03 84 1010.6
20260901165549 80 154 0.0 0.0 0.00 0.00 0.03 84 1010.8
20260901165052 80 154 0.0 0.0 0.00 0.00 0.03 83 1010.8
20260901164601 80 154 0.0 0.0 0.00 0.00 0.03 82 1010.8
20260901164103 80 154 0.0 0.0 0.00 0.00 0.03 82 1011.0
20260901163606 80 154 0.0 0.0 0.00 0.00 0.03 82 1011.0
20260901163053 80 154 0.0 0.0 0.00 0.00 0.03 82 1011.0
20260901162558 80 154 0.0 0.0 0.00 0.00 0.03 82 1011.0
20260901162100 80 154 0.0 0.0 0.00 0.00 0.03 81 1011.0
20260901161603 80 154 0.0 0.0 0.00 0.00 0.03 81 1011.0
20260901161001 80 154 0.0 0.0 0.00 0.00 0.03 81 1011.0
20260901160511 80 154 0.0 0.0 0.00 0.00 0.03 80 1011.0
20260901160119 81 154 0.0 0.0 0.00 0.00 0.03 80 1011.0
20260901155503 81 154 0.0 0.0 0.00 0.00 0.03 79 1010.9
20260901155007 81 154 0.0 0.0 0.00 0.00 0.03 78 1010.9
20260901154601 81 154 0.0 0.0 0.00 0.00 0.03 77 1010.9
20260901154003 82 154 0.0 0.0 0.00 0.00 0.03 76 1011.0
20260901153508 82 154 0.0 0.0 0.00 0.00 0.03 74 1011.0
20260901153059 82 154 0.0 0.0 0.00 0.00 0.03 73 1011.0
20260901152546 82 154 0.0 0.0 0.00 0.00 0.03 73 1011.0
20260901152049 83 154 0.0 0.0 0.00 0.00 0.03 74 1011.0
20260901151554 82 154 0.0 0.0 0.00 0.00 0.03 75 1011.0
20260901151100 82 154 0.0 0.0 0.00 0.00 0.03 76 1011.1
20260901150605 81 154 0.0 0.0 0.00 0.00 0.03 77 1011.1
20260901150107 80 154 0.0 0.0 0.00 0.00 0.03 78 1011.1
20260901145506 80 154 0.0 0.0 0.00 0.00 0.02 81 1011.2
20260901145008 79 154 0.0 0.0 0.00 0.00 0.02 84 1011.2
20260901144517 78 154 0.0 0.0 0.00 0.00 0.02 85 1011.2
20260901144104 78 154 0.0 0.0 0.00 0.00 0.02 86 1011.2
20260901143506 77 154 0.0 0.0 0.00 0.00 0.02 88 1011.2
20260901143009 77 154 0.0 0.0 0.00 0.00 0.02 90 1011.2
20260901142601 77 154 0.0 0.0 0.00 0.00 0.02 92 1011.4
20260901142104 76 154 0.0 0.0 0.00 0.00 0.02 93 1011.4
20260901141500 76 154 0.0 0.0 0.00 0.00 0.02 94 1011.4
20260901141003 76 154 0.0 0.0 0.00 0.00 0.02 95 1011.2
20260901140507 75 154 0.0 0.0 0.00 0.00 0.02 95 1011.2
20260901140108 75 154 0.0 0.0 0.00 0.00 0.02 95 1011.2
20260901135605 75 154 0.0 0.0 0.00 0.00 0.02 96 1011.1
20260901135007 75 154 0.0 0.0 0.00 0.00 0.02 96 1011.1
20260901134558 75 154 0.0 0.0 0.00 0.00 0.02 96 1011.1
20260901134050 75 154 0.0 0.0 0.00 0.00 0.02 97 1011.1
20260901133549 74 154 0.0 0.0 0.00 0.00 0.02 97 1011.1
20260901133053 75 154 0.0 0.0 0.00 0.00 0.02 97 1011.1
20260901132556 75 154 0.0 0.0 0.00 0.00 0.02 97 1011.3
20260901132005 74 154 0.0 0.0 0.00 0.00 0.02 98 1011.3
20260901131507 74 154 0.0 0.0 0.00 0.00 0.02 98 1011.3
20260901131100 74 154 0.0 0.0 0.00 0.00 0.02 98 1011.5
20260901130605 74 154 0.0 0.0 0.00 0.00 0.02 98 1011.5
20260901130002 74 154 0.0 0.0 0.00 0.00 0.02 98 1011.5
20260901125504 74 154 0.0 0.0 0.00 0.00 0.02 98 1011.5
20260901125058 74 154 0.0 0.0 0.00 0.00 0.02 98 1011.5
20260901124601 74 154 0.0 0.0 0.00 0.00 0.02 99 1011.5
20260901124107 73 154 0.0 0.0 0.00 0.00 0.02 99 1011.5
20260901123506 73 154 0.0 0.0 0.00 0.00 0.02 99 1011.5
20260901123119 73 154 0.0 0.0 0.00 0.00 0.02 99 1011.5
20260901122603 73 154 0.0 0.0 0.00 0.00 0.02 99 1011.4
20260901122004 72 154 0.0 0.0 0.00 0.00 0.02 99 1011.4
20260901121507 72 154 0.0 0.0 0.00 0.00 0.02 99 1011.4
20260901121101 72 154 0.0 0.0 0.00 0.00 0.02 99 1011.8
20260901120548 71 154 0.0 0.0 0.00 0.00 0.02 99 1011.8
20260901120055 71 154 0.0 0.0 0.00 0.00 0.02 99 1011.8
20260901115555 70 154 0.0 0.0 0.00 0.00 0.02 98 1011.7
20260901115103 70 154 0.0 0.0 0.00 0.00 0.02 98 1011.7
20260901114605 70 154 0.0 0.0 0.00 0.00 0.02 98 1011.7
20260901114003 70 154 0.0 0.0 0.00 0.00 0.02 98 1011.5
20260901113505 70 154 0.0 0.0 0.00 0.00 0.02 98 1011.5
20260901113106 70 154 0.0 0.0 0.00 0.00 0.02 98 1011.5
20260901112602 69 154 0.0 0.0 0.00 0.00 0.02 98 1011.7
20260901112105 69 154 0.0 0.0 0.00 0.00 0.02 98 1011.7
20260901111502 69 154 0.0 0.0 0.00 0.00 0.02 98 1011.7
20260901111008 69 154 0.0 0.0 0.00 0.00 0.02 98 1011.6
20260901110558 69 154 0.0 0.0 0.00 0.00 0.02 98 1011.6
20260901110114 69 154 0.0 0.0 0.00 0.00 0.02 98 1011.6
20260901105607 69 154 0.0 0.0 0.00 0.00 0.02 98 1011.6
20260901105056 69 154 0.0 0.0 0.00 0.00 0.02 98 1011.6
20260901104601 69 154 0.0 0.0 0.00 0.00 0.02 98 1011.6
20260901104002 69 154 0.0 0.0 0.00 0.00 0.02 98 1011.5
20260901103554 69 154 0.0 0.0 0.00 0.00 0.02 97 1011.5
20260901103106 69 154 0.0 0.0 0.00 0.00 0.02 98 1011.5
20260901102603 70 154 0.0 0.0 0.00 0.00 0.02 98 1011.4
20260901102106 70 154 0.0 0.0 0.00 0.00 0.02 98 1011.4
20260901101554 70 154 0.0 0.0 0.00 0.00 0.01 98 1011.4
20260901101101 69 154 0.0 0.0 0.00 0.00 0.01 97 1011.3
20260901100604 70 154 0.0 0.0 0.00 0.00 0.01 97 1011.3
20260901100002 70 154 0.0 0.0 0.00 0.00 0.01 98 1011.3
20260901095504 70 154 0.0 0.0 0.00 0.00 0.01 97 1011.4
20260901095008 70 154 0.0 0.0 0.00 0.00 0.01 97 1011.4
20260901094511 70 154 0.0 0.0 0.00 0.00 0.01 97 1011.4
20260901094104 70 154 0.0 0.0 0.00 0.00 0.01 97 1011.3
20260901093502 70 154 0.0 0.0 0.00 0.00 0.01 98 1011.3
20260901093105 70 154 0.0 0.0 0.00 0.00 0.01 98 1011.3
20260901092602 70 154 0.0 0.0 0.00 0.00 0.01 98 1011.6
20260901092106 70 154 0.0 0.0 0.00 0.00 0.01 97 1011.6
20260901091559 69 154 0.0 0.0 0.00 0.00 0.01 97 1011.6
20260901091055 70 154 0.0 0.0 0.00 0.00 0.01 98 1011.7
20260901090605 69 154 0.0 0.0 0.00 0.00 0.01 97 1011.7
20260901090104 69 154 0.0 0.0 0.00 0.00 0.01 97 1011.7
20260901085501 69 154 0.0 0.0 0.00 0.00 0.01 97 1011.7
20260901085005 69 154 0.0 0.0 0.00 0.00 0.01 97 1011.7
20260901084508 69 154 0.0 0.0 0.00 0.00 0.01 97 1011.7
20260901084101 69 154 0.0 0.0 0.00 0.00 0.01 97 1011.6
20260901083605 70 154 0.0 0.0 0.00 0.00 0.01 97 1011.6
20260901083002 69 154 0.0 0.0 0.00 0.00 0.01 97 1011.6
20260901082506 69 154 0.0 0.0 0.00 0.00 0.01 97 1011.7
20260901082058 69 154 0.0 0.0 0.00 0.00 0.01 97 1011.7
20260901081603 69 154 0.0 0.0 0.00 0.00 0.01 97 1011.7
20260901081048 70 154 0.0 0.0 0.00 0.00 0.01 97 1011.6
20260901080551 70 154 0.0 0.0 0.00 0.00 0.01 97 1011.6
20260901080058 70 154 0.0 0.0 0.00 0.00 0.01 97 1011.6
20260901075558 70 154 0.0 0.0 0.00 0.00 0.01 97 1011.6
20260901075107 70 154 0.0 0.0 0.00 0.00 0.01 97 1011.6
20260901074502 70 154 0.0 0.0 0.00 0.00 0.01 97 1011.6
20260901074005 70 154 0.0 0.0 0.00 0.00 0.01 97 1011.7
20260901073559 70 154 0.0 0.0 0.00 0.00 0.01 97 1011.7
20260901073103 70 154 0.0 0.0 0.00 0.00 0.01 97 1011.7
20260901072606 70 154 0.0 0.0 0.00 0.00 0.01 97 1011.8
20260901072006 69 154 0.0 0.0 0.00 0.00 0.01 97 1011.8
20260901071557 70 154 0.0 0.0 0.00 0.00 0.01 97 1011.8
20260901071059 70 154 0.0 0.0 0.00 0.00 0.01 97 1011.9
20260901070602 70 154 0.0 0.0 0.00 0.00 0.01 97 1011.9
20260901070002 70 154 0.0 0.0 0.00 0.00 0.00 97 1011.9
20260901065506 70 154 0.0 0.0 0.00 0.00 0.00 97 1012.1
20260901065010 70 154 0.0 0.0 0.00 0.00 0.00 97 1012.1
20260901064512 70 154 0.0 0.0 0.00 0.00 0.00 97 1012.1
20260901064106 70 154 0.0 0.0 0.00 0.00 0.00 97 1012.2
20260901063554 70 154 0.0 0.0 0.00 0.00 0.00 97 1012.2
20260901063058 70 154 0.0 0.0 0.00 0.00 0.00 97 1012.2
20260901062559 69 154 0.0 0.0 0.00 0.00 0.00 96 1012.4
20260901062103 70 154 0.0 0.0 0.00 0.00 0.00 96 1012.4
20260901061610 70 154 0.0 0.0 0.00 0.00 0.00 96 1012.4
20260901061004 70 154 0.0 0.0 0.00 0.00 0.00 96 1012.4
20260901060506 70 154 0.0 0.0 0.00 0.00 0.00 96 1012.4
20260901055505 70 154 0.0 0.0 0.00 0.00 0.00 96 1012.5
20260901055008 70 154 0.0 0.0 0.00 0.00 0.00 96 1012.5
20260901054609 70 154 0.0 0.0 0.00 0.00 0.00 96 1012.5
20260901054003 70 154 0.0 0.0 0.00 0.00 0.00 96 1012.6
20260901053509 70 154 0.0 0.0 0.00 0.00 0.00 96 1012.6
20260901053117 70 154 0.0 0.0 0.00 0.00 0.00 96 1012.6
20260901052605 70 154 0.0 0.0 0.00 0.00 0.00 96 1012.8